Regional Weather Roundup
Issued by NWS

Home | Current Version | Previous Version | Graphics & Text | Print | Product List | Glossary On
Versions: 1 2 3 4 5 6 7 8 9 10 11 12 13 14 15 16 17 18 19 20 21 22 23 24 25 26 27 28 29 30 31 32 33 34 35 36 37 38 39 40 41 42 43 44 45 46 47 48 49 50
837
ASUS45 KSLC 231310
RWRUT

UTAH REGIONAL WEATHER ROUNDUP
NATIONAL WEATHER SERVICE SALT LAKE CITY UT
700 AM MDT TUE AUG 23 2016

UTZ001>011-023>025-231400-

NORTHERN UTAH

CITY           SKY/WX    TMP DP  RH WIND       PRES   REMARKS
BRIGHAM CITY     N/A     57  33  41 NW5       30.06R
HILL AFB       PTCLDY    62  34  34 E9        30.08R
LOGAN          PTCLDY    46  37  71 CALM      30.08R
OGDEN          MOCLDY    62  33  33 S13       30.05R
PROVO AIRPORT  PTCLDY    61  39  44 SE6       30.08S
SALT LAKE CITY MOCLDY    68  40  35 SE6       30.05R
VERNAL         CLOUDY    52  39  61 CALM      30.14R
WENDOVER       MOCLDY    66  30  26 E7        30.05R
HEBER CITY     PTCLDY    46  37  71 CALM      30.13R
WEST JORDAN    PTCLDY    67  44  41 S9        30.08R

$$

UTZ012>022-026-027-231400-

SOUTHERN/CENTRAL UTAH

CITY           SKY/WX    TMP DP  RH WIND       PRES   REMARKS
BLANDING       PTCLDY    57  47  68 N6        30.25S
BRYCE CANYON   CLOUDY    49  45  86 W6        30.28S
CEDAR CITY     CLOUDY    59  47  64 S12       30.15F
DELTA          MOCLDY    59  41  51 MISG      30.10R
MILFORD        MOCLDY    59  52  77 SE9       30.12R
MOAB/CYNLANDS  CLOUDY    63  56  78 CALM      30.11R
PRICE          PTCLDY    54  40  59 N6        30.18R
ST GEORGE      PTSUNNY   68  54  60 SW9       30.09R

$$

REGIONAL REPORTS     COLORADO/ARIZONA

CITY           SKY/WX    TMP DP  RH WIND       PRES   REMARKS
CRAIG, CO      CLOUDY    42  38  85 CALM      30.20R
GRAND JUNCTION CLOUDY    61  46  57 E9        30.15R
RIFLE          CLEAR     51  47  86 CALM      30.21R
MONTROSE       CLOUDY    53  44  71 S6        30.22R
CORTEZ         CLOUDY    52  48  86 SE7       30.21R
PAGE, AZ       MOCLDY    69  50  50 W3        30.09R
GRAND CANYON   CLOUDY    52  49  89 CALM      30.24R
KINGMAN        CLOUDY    62  59  90 E3        30.10R
FLAGSTAFF      CLOUDY    51  50  96 SW9       30.29R

$$

REGIONAL REPORTS    NEVADA/IDAHO/WYOMING

CITY           SKY/WX    TMP DP  RH WIND       PRES   REMARKS
LAS VEGAS, NV  MOCLDY    72  57  59 CALM      30.00R
ELY            PTCLDY    44  39  82 SE12      30.23R
ELKO           PTCLDY    54  35  48 SE3       30.11R
POCATELLO, ID  CLEAR     59  22  24 SW18      30.08R
BURLEY         CLEAR     47  35  63 SW8       30.08R
EVANSTON, WY   CLOUDY    51  24  34 S7        30.21R
ROCK SPRINGS   CLOUDY    51  14  22 NW5       30.18R

$$




USA.gov is the U.S. government's official web portal to all federal, state and local government web resources and services.